This is the latest recevied weather packets stored in our database for station/object W5ALL-WX. If no packets are shown the sender has not sent any weather packets the latest 10 day(s).
| Time | Temp. | Humidity | Pressure | Rain* | Wind** | Luminosity | Snow |
|---|---|---|---|---|---|---|---|
| 1777319400 | 24.44° C | 7% | 1013.5 hPa | 0 mm | - | - | - |
| 1777319100 | 24.44° C | 8% | 1013.5 hPa | 0 mm | - | - | - |
| 1777318800 | 23.89° C | 8% | 1013.6 hPa | 0 mm | - | - | - |
| 1777318500 | 23.89° C | 8% | 1013.6 hPa | 0 mm | - | - | - |
| 1777318200 | 23.89° C | 8% | 1013.8 hPa | 0 mm | - | - | - |
| 1777317900 | 23.89° C | 8% | 1013.9 hPa | 0 mm | - | - | - |
| 1777317600 | 23.33° C | 9% | 1013.8 hPa | 0 mm | - | - | - |
| 1777317304 | 23.89° C | 10% | 1013.9 hPa | 0 mm | - | - | - |
| 1777317000 | 23.89° C | 11% | 1013.9 hPa | 0 mm | - | - | - |
| 1777316700 | 22.78° C | 10% | 1014 hPa | 0 mm | - | - | - |
| 1777316400 | 22.78° C | 12% | 1014.2 hPa | 0 mm | - | - | - |
| 1777316100 | 22.78° C | 12% | 1014.2 hPa | 0 mm | - | - | - |
| 1777315800 | 22.78° C | 12% | 1014.1 hPa | 0 mm | - | - | - |
| 1777315500 | 22.78° C | 12% | 1014.2 hPa | 0 mm | - | - | - |
| 1777315200 | 22.78° C | 13% | 1014.3 hPa | 0 mm | - | - | - |
| 1777314900 | 22.78° C | 12% | 1014.3 hPa | 0 mm | - | - | - |
| 1777314600 | 22.22° C | 12% | 1014.3 hPa | 0 mm | - | - | - |
| 1777314300 | 21.67° C | 12% | 1014.5 hPa | 0 mm | - | - | - |
| 1777314000 | 22.22° C | 10% | 1014.6 hPa | 0 mm | - | - | - |
| 1777313700 | 22.22° C | 11% | 1014.7 hPa | 0 mm | - | - | - |
| 1777313400 | 22.22° C | 13% | 1014.7 hPa | 0 mm | - | - | - |
| 1777313102 | 22.22° C | 12% | 1014.7 hPa | 0 mm | - | - | - |
| 1777312800 | 21.67° C | 12% | 1014.8 hPa | 0 mm | - | - | - |
| 1777312500 | 22.22° C | 12% | 1014.9 hPa | 0 mm | - | - | - |
| 1777312200 | 21.67° C | 13% | 1014.8 hPa | 0 mm | - | - | - |
* Rain latest hour (hover to see other rain measurements)
** Current wind speed in m/s (hover to see current wind gust speed)